| time (UTC) | temp F | wind direction | speed knots | gust knots | rain 1hr in | rain 24hr in | rain mn in | humidity % | barometer mb |
| 20260505014551 | 56 | 148 | 0.9 | 5.2 | 0.00 | 0.00 | 0.00 | 65 | 1007.3 |
| 20260505014051 | 56 | 155 | 1.7 | 5.2 | 0.00 | 0.00 | 0.00 | 65 | 1007.3 |
| 20260505013544 | 57 | 150 | 1.7 | 5.2 | 0.00 | 0.00 | 0.00 | 63 | 1007.1 |
| 20260505013112 | 58 | 155 | 2.6 | 6.1 | 0.00 | 0.00 | 0.00 | 62 | 1007.2 |
| 20260505012549 | 58 | 147 | 2.6 | 6.1 | 0.00 | 0.00 | 0.00 | 60 | 1007.1 |
| 20260505012045 | 59 | 146 | 3.5 | 5.2 | 0.00 | 0.00 | 0.00 | 57 | 1007.0 |
| 20260505011554 | 60 | 135 | 0.0 | 0.9 | 0.00 | 0.00 | 0.00 | 54 | 1006.9 |
| 20260505011047 | 60 | 158 | 0.0 | 0.9 | 0.00 | 0.00 | 0.00 | 53 | 1006.9 |
| 20260505010544 | 60 | 173 | 0.0 | 0.9 | 0.00 | 0.00 | 0.00 | 52 | 1006.9 |
| 20260505005546 | 61 | 0 | 0.0 | 0.9 | 0.00 | 0.00 | 0.00 | 50 | 1006.6 |
| 20260505005048 | 61 | 0 | 0.0 | 2.6 | 0.00 | 0.00 | 0.00 | 50 | 1006.6 |
| 20260505004549 | 61 | 226 | 0.0 | 2.6 | 0.00 | 0.00 | 0.00 | 51 | 1006.5 |
| 20260505004044 | 61 | 201 | 0.0 | 0.9 | 0.00 | 0.00 | 0.00 | 52 | 1006.4 |
| 20260505003548 | 61 | 0 | 0.0 | 0.9 | 0.00 | 0.00 | 0.00 | 51 | 1006.4 |
| 20260505003053 | 62 | 0 | 0.0 | 0.9 | 0.00 | 0.00 | 0.00 | 50 | 1006.5 |
| 20260505002545 | 62 | 146 | 0.0 | 0.0 | 0.00 | 0.00 | 0.00 | 48 | 1006.4 |
| 20260505002044 | 62 | 0 | 0.0 | 0.0 | 0.00 | 0.00 | 0.00 | 48 | 1006.3 |
| 20260505001548 | 63 | 0 | 0.0 | 0.0 | 0.00 | 0.00 | 0.00 | 47 | 1006.3 |
| 20260505001044 | 64 | 0 | 0.0 | 0.9 | 0.00 | 0.00 | 0.00 | 45 | 1006.0 |
| 20260505000546 | 65 | 150 | 0.0 | 0.9 | 0.00 | 0.00 | 0.00 | 44 | 1005.9 |
| 20260505000105 | 66 | 0 | 0.0 | 1.7 | 0.00 | 0.00 | 0.00 | 42 | 1005.9 |
| 20260504235548 | 66 | 192 | 0.0 | 2.6 | 0.00 | 0.00 | 0.00 | 42 | 1005.9 |
| 20260504235048 | 67 | 221 | 0.9 | 5.2 | 0.00 | 0.00 | 0.00 | 41 | 1005.8 |
| 20260504234551 | 67 | 243 | 0.9 | 5.2 | 0.00 | 0.00 | 0.00 | 41 | 1005.7 |
| 20260504234044 | 67 | 231 | 0.9 | 5.2 | 0.00 | 0.00 | 0.00 | 40 | 1005.6 |
| 20260504233547 | 68 | 236 | 0.9 | 5.2 | 0.00 | 0.00 | 0.00 | 40 | 1005.7 |
| 20260504233058 | 68 | 258 | 2.6 | 7.0 | 0.00 | 0.00 | 0.00 | 39 | 1005.6 |
| 20260504232549 | 68 | 234 | 2.6 | 10.4 | 0.00 | 0.00 | 0.00 | 39 | 1005.4 |
| 20260504232048 | 69 | 263 | 3.5 | 10.4 | 0.00 | 0.00 | 0.00 | 38 | 1005.4 |
| 20260504231552 | 69 | 271 | 3.5 | 10.4 | 0.00 | 0.00 | 0.00 | 38 | 1005.2 |
| 20260504231046 | 70 | 240 | 5.2 | 9.6 | 0.00 | 0.00 | 0.00 | 38 | 1005.1 |
| 20260504230551 | 70 | 240 | 3.5 | 8.7 | 0.00 | 0.00 | 0.00 | 38 | 1004.9 |
| 20260504225549 | 70 | 276 | 3.5 | 8.7 | 0.00 | 0.00 | 0.00 | 37 | 1005.0 |
| 20260504225048 | 70 | 257 | 4.3 | 13.9 | 0.00 | 0.00 | 0.00 | 38 | 1004.8 |
| 20260504224553 | 70 | 243 | 4.3 | 13.9 | 0.00 | 0.00 | 0.00 | 37 | 1004.8 |
| 20260504224049 | 70 | 280 | 6.1 | 13.9 | 0.00 | 0.00 | 0.00 | 37 | 1004.9 |
| 20260504223549 | 70 | 239 | 2.6 | 10.4 | 0.00 | 0.00 | 0.00 | 38 | 1004.8 |
| 20260504223100 | 71 | 238 | 2.6 | 12.2 | 0.00 | 0.00 | 0.00 | 37 | 1004.8 |
| 20260504222549 | 71 | 268 | 7.0 | 12.2 | 0.00 | 0.00 | 0.00 | 37 | 1004.7 |
| 20260504222046 | 71 | 251 | 7.0 | 13.9 | 0.00 | 0.00 | 0.00 | 36 | 1004.6 |
| 20260504221550 | 71 | 243 | 7.8 | 13.9 | 0.00 | 0.00 | 0.00 | 37 | 1004.6 |
| 20260504221048 | 71 | 280 | 7.0 | 14.8 | 0.00 | 0.00 | 0.00 | 36 | 1004.5 |
| 20260504220545 | 71 | 266 | 6.1 | 14.8 | 0.00 | 0.00 | 0.00 | 36 | 1004.6 |
| 20260504220053 | 71 | 301 | 7.0 | 13.0 | 0.00 | 0.00 | 0.00 | 38 | 1004.5 |
| 20260504215545 | 71 | 288 | 6.1 | 13.0 | 0.00 | 0.00 | 0.00 | 36 | 1004.7 |
| 20260504215046 | 71 | 278 | 6.1 | 13.0 | 0.00 | 0.00 | 0.00 | 36 | 1004.7 |
| 20260504214607 | 71 | 269 | 5.2 | 16.5 | 0.00 | 0.00 | 0.00 | 36 | 1004.6 |
| 20260504214045 | 71 | 270 | 7.0 | 19.1 | 0.00 | 0.00 | 0.00 | 37 | 1004.6 |
| 20260504213549 | 71 | 293 | 10.4 | 19.1 | 0.00 | 0.00 | 0.00 | 36 | 1004.7 |
| 20260504213118 | 71 | 271 | 12.2 | 19.1 | 0.00 | 0.00 | 0.00 | 34 | 1004.6 |
| 20260504212549 | 71 | 238 | 7.0 | 13.0 | 0.00 | 0.00 | 0.00 | 39 | 1004.6 |
| 20260504212050 | 71 | 268 | 7.0 | 13.9 | 0.00 | 0.00 | 0.00 | 39 | 1004.5 |
| 20260504211555 | 71 | 231 | 7.8 | 15.6 | 0.00 | 0.00 | 0.00 | 37 | 1004.7 |
| 20260504211050 | 71 | 259 | 6.1 | 17.4 | 0.00 | 0.00 | 0.00 | 38 | 1004.7 |
| 20260504210550 | 71 | 243 | 7.8 | 17.4 | 0.00 | 0.00 | 0.00 | 37 | 1004.4 |
| 20260504210049 | 71 | 271 | 9.6 | 20.0 | 0.00 | 0.00 | 0.00 | 38 | 1004.6 |
| 20260504205548 | 70 | 243 | 11.3 | 23.5 | 0.00 | 0.00 | 0.00 | 37 | 1004.5 |
| 20260504205049 | 70 | 258 | 13.9 | 23.5 | 0.00 | 0.00 | 0.00 | 36 | 1004.4 |
| 20260504204603 | 70 | 252 | 9.6 | 18.2 | 0.00 | 0.00 | 0.00 | 37 | 1004.5 |
| 20260504204049 | 70 | 275 | 7.0 | 13.0 | 0.00 | 0.00 | 0.00 | 40 | 1004.5 |
| 20260504203548 | 69 | 281 | 6.1 | 16.5 | 0.00 | 0.00 | 0.00 | 38 | 1004.5 |
| 20260504203105 | 69 | 292 | 9.6 | 16.5 | 0.00 | 0.00 | 0.00 | 39 | 1004.6 |
| 20260504202547 | 70 | 229 | 8.7 | 18.2 | 0.00 | 0.00 | 0.00 | 38 | 1004.5 |
| 20260504202046 | 70 | 269 | 8.7 | 18.2 | 0.00 | 0.00 | 0.00 | 38 | 1004.5 |
| 20260504201608 | 69 | 283 | 7.0 | 22.6 | 0.00 | 0.00 | 0.00 | 38 | 1004.6 |
| 20260504201049 | 70 | 248 | 11.3 | 22.6 | 0.00 | 0.00 | 0.00 | 37 | 1004.7 |
| 20260504200548 | 70 | 261 | 11.3 | 22.6 | 0.00 | 0.00 | 0.00 | 37 | 1004.6 |
| 20260504200053 | 70 | 230 | 8.7 | 21.7 | 0.00 | 0.00 | 0.00 | 38 | 1004.5 |
| 20260504195547 | 70 | 302 | 10.4 | 21.7 | 0.00 | 0.00 | 0.00 | 39 | 1004.4 |
| 20260504195048 | 70 | 253 | 11.3 | 21.7 | 0.00 | 0.00 | 0.00 | 39 | 1004.6 |
| 20260504194554 | 70 | 279 | 9.6 | 21.7 | 0.00 | 0.00 | 0.00 | 39 | 1004.6 |
| 20260504194049 | 70 | 257 | 9.6 | 14.8 | 0.00 | 0.00 | 0.00 | 40 | 1004.6 |
| 20260504193550 | 70 | 273 | 7.0 | 13.9 | 0.00 | 0.00 | 0.00 | 39 | 1004.5 |
| 20260504193051 | 69 | 244 | 5.2 | 16.5 | 0.00 | 0.00 | 0.00 | 43 | 1004.6 |
| 20260504192547 | 69 | 336 | 6.1 | 16.5 | 0.00 | 0.00 | 0.00 | 38 | 1004.6 |
| 20260504192051 | 69 | 256 | 8.7 | 18.2 | 0.00 | 0.00 | 0.00 | 38 | 1004.9 |
| 20260504191559 | 68 | 292 | 7.8 | 18.2 | 0.00 | 0.00 | 0.00 | 39 | 1004.9 |
| 20260504191045 | 68 | 243 | 10.4 | 17.4 | 0.00 | 0.00 | 0.00 | 39 | 1005.0 |
| 20260504190549 | 67 | 238 | 8.7 | 15.6 | 0.00 | 0.00 | 0.00 | 39 | 1005.0 |
| 20260504190112 | 67 | 271 | 4.3 | 20.9 | 0.00 | 0.00 | 0.00 | 40 | 1005.1 |
| 20260504185551 | 67 | 303 | 9.6 | 20.9 | 0.00 | 0.00 | 0.00 | 39 | 1004.9 |
| 20260504185049 | 67 | 288 | 7.0 | 13.9 | 0.00 | 0.00 | 0.00 | 40 | 1005.0 |
| 20260504184603 | 67 | 244 | 7.8 | 20.0 | 0.00 | 0.00 | 0.00 | 39 | 1005.1 |
| 20260504184049 | 67 | 268 | 9.6 | 23.5 | 0.00 | 0.00 | 0.00 | 40 | 1005.1 |
| 20260504183549 | 68 | 257 | 13.0 | 23.5 | 0.00 | 0.00 | 0.00 | 39 | 1004.9 |
| 20260504183052 | 68 | 257 | 7.8 | 24.3 | 0.00 | 0.00 | 0.00 | 38 | 1005.2 |
| 20260504182548 | 68 | 231 | 10.4 | 24.3 | 0.00 | 0.00 | 0.00 | 40 | 1005.0 |
| 20260504182050 | 69 | 244 | 13.0 | 24.3 | 0.00 | 0.00 | 0.00 | 37 | 1004.9 |
| 20260504181556 | 69 | 246 | 13.9 | 24.3 | 0.00 | 0.00 | 0.00 | 37 | 1004.8 |
| 20260504181048 | 69 | 233 | 10.4 | 19.1 | 0.00 | 0.00 | 0.00 | 38 | 1004.9 |
| 20260504180550 | 69 | 318 | 10.4 | 20.0 | 0.00 | 0.00 | 0.00 | 40 | 1005.0 |
| 20260504180054 | 68 | 250 | 8.7 | 20.0 | 0.00 | 0.00 | 0.00 | 37 | 1005.0 |
| 20260504175545 | 68 | 250 | 10.4 | 18.2 | 0.00 | 0.00 | 0.00 | 37 | 1005.1 |
| 20260504175045 | 67 | 258 | 9.6 | 25.2 | 0.00 | 0.00 | 0.00 | 39 | 1005.0 |
| 20260504174553 | 67 | 257 | 13.0 | 25.2 | 0.00 | 0.00 | 0.00 | 37 | 1005.1 |
| 20260504174050 | 67 | 264 | 15.6 | 25.2 | 0.00 | 0.00 | 0.00 | 38 | 1005.1 |
| 20260504173549 | 68 | 179 | 17.4 | 24.3 | 0.00 | 0.00 | 0.00 | 37 | 1005.2 |
| 20260504173049 | 68 | 263 | 13.9 | 20.9 | 0.00 | 0.00 | 0.00 | 36 | 1005.0 |
| 20260504172548 | 68 | 242 | 12.2 | 20.9 | 0.00 | 0.00 | 0.00 | 37 | 1004.9 |
| 20260504172048 | 68 | 252 | 8.7 | 23.5 | 0.00 | 0.00 | 0.00 | 37 | 1004.9 |
| 20260504171557 | 67 | 263 | 12.2 | 23.5 | 0.00 | 0.00 | 0.00 | 41 | 1004.9 |
| 20260504171049 | 67 | 240 | 12.2 | 22.6 | 0.00 | 0.00 | 0.00 | 37 | 1004.9 |
| 20260504170549 | 67 | 255 | 13.9 | 26.9 | 0.00 | 0.00 | 0.00 | 37 | 1005.0 |
| 20260504160103 | 65 | 257 | 16.5 | 28.7 | 0.00 | 0.00 | 0.00 | 40 | 1005.5 |
| 20260504151045 | 63 | 240 | 9.6 | 19.1 | 0.00 | 0.00 | 0.00 | 48 | 1006.2 |
| 20260504150550 | 63 | 245 | 7.8 | 13.9 | 0.00 | 0.00 | 0.00 | 48 | 1006.0 |
| 20260504141048 | 58 | 254 | 5.2 | 14.8 | 0.00 | 0.00 | 0.00 | 54 | 1007.2 |
| 20260504140549 | 58 | 274 | 9.6 | 19.1 | 0.00 | 0.00 | 0.00 | 53 | 1007.4 |
| 20260504140106 | 58 | 271 | 7.8 | 19.1 | 0.00 | 0.00 | 0.00 | 55 | 1007.5 |
| 20260504130548 | 54 | 265 | 6.1 | 11.3 | 0.00 | 0.00 | 0.00 | 60 | 1007.9 |
| 20260504120108 | 49 | 255 | 5.2 | 9.6 | 0.00 | 0.00 | 0.00 | 67 | 1008.9 |
| 20260504110549 | 45 | 0 | 0.0 | 5.2 | 0.00 | 0.00 | 0.00 | 70 | 1009.0 |
| 20260504100549 | 40 | 0 | 0.0 | 0.0 | 0.00 | 0.00 | 0.00 | 76 | 1008.8 |
| 20260504081550 | 38 | 248 | 0.0 | 2.6 | 0.00 | 0.00 | 0.00 | 80 | 1008.6 |
| 20260504081048 | 38 | 242 | 0.9 | 2.6 | 0.00 | 0.00 | 0.00 | 82 | 1008.7 |
| 20260504080547 | 37 | 215 | 0.9 | 1.7 | 0.00 | 0.00 | 0.00 | 85 | 1008.7 |
| 20260504050547 | 33 | 0 | 0.0 | 0.0 | 0.00 | 0.00 | 0.00 | 87 | 1008.6 |
| 20260504045548 | 33 | 0 | 0.0 | 0.0 | 0.00 | 0.00 | 0.00 | 87 | 1008.7 |
| 20260504045049 | 33 | 0 | 0.0 | 0.0 | 0.00 | 0.00 | 0.00 | 87 | 1008.6 |
| 20260504044555 | 33 | 0 | 0.0 | 0.0 | 0.00 | 0.00 | 0.00 | 88 | 1008.6 |
| 20260504044046 | 33 | 0 | 0.0 | 0.0 | 0.00 | 0.00 | 0.00 | 88 | 1008.6 |
| 20260504043546 | 33 | 0 | 0.0 | 0.0 | 0.00 | 0.00 | 0.00 | 88 | 1008.7 |
| 20260504043054 | 33 | 0 | 0.0 | 0.0 | 0.00 | 0.00 | 0.00 | 89 | 1008.8 |
| 20260504042546 | 33 | 0 | 0.0 | 0.0 | 0.00 | 0.00 | 0.00 | 88 | 1008.5 |
| 20260504042047 | 33 | 0 | 0.0 | 0.0 | 0.00 | 0.00 | 0.00 | 88 | 1008.6 |
| 20260504041549 | 33 | 0 | 0.0 | 0.0 | 0.00 | 0.00 | 0.00 | 87 | 1008.5 |
| 20260504041048 | 34 | 0 | 0.0 | 0.0 | 0.00 | 0.00 | 0.00 | 87 | 1008.6 |
| 20260504040548 | 34 | 0 | 0.0 | 0.0 | 0.00 | 0.00 | 0.00 | 87 | 1008.6 |
| 20260504040053 | 34 | 0 | 0.0 | 0.0 | 0.00 | 0.00 | 0.00 | 87 | 1008.5 |
| 20260504035545 | 34 | 0 | 0.0 | 0.0 | 0.00 | 0.00 | 0.00 | 86 | 1008.4 |
| 20260504035047 | 34 | 0 | 0.0 | 0.0 | 0.00 | 0.00 | 0.00 | 86 | 1008.4 |
| 20260504034549 | 34 | 0 | 0.0 | 0.0 | 0.00 | 0.00 | 0.00 | 85 | 1008.3 |
| 20260504034050 | 35 | 0 | 0.0 | 0.0 | 0.00 | 0.00 | 0.00 | 84 | 1008.2 |
| 20260504033547 | 35 | 0 | 0.0 | 0.0 | 0.00 | 0.00 | 0.00 | 84 | 1008.1 |
| 20260504033104 | 35 | 0 | 0.0 | 0.0 | 0.00 | 0.00 | 0.00 | 84 | 1008.2 |
| 20260504032547 | 35 | 0 | 0.0 | 0.0 | 0.00 | 0.00 | 0.00 | 83 | 1008.0 |
| 20260504032049 | 36 | 0 | 0.0 | 0.0 | 0.00 | 0.00 | 0.00 | 82 | 1008.0 |
| 20260504031559 | 36 | 0 | 0.0 | 0.0 | 0.00 | 0.00 | 0.00 | 80 | 1008.0 |
| 20260504031050 | 36 | 0 | 0.0 | 0.0 | 0.00 | 0.00 | 0.00 | 83 | 1008.0 |
| 20260504030545 | 36 | 0 | 0.0 | 0.0 | 0.00 | 0.00 | 0.00 | 80 | 1008.0 |
| 20260504030052 | 37 | 0 | 0.0 | 0.9 | 0.00 | 0.00 | 0.00 | 79 | 1007.9 |
| 20260504025548 | 37 | 0 | 0.0 | 0.9 | 0.00 | 0.04 | 0.00 | 80 | 1007.9 |
| 20260504025046 | 37 | 0 | 0.0 | 0.0 | 0.00 | 0.04 | 0.00 | 80 | 1007.9 |
| 20260504024558 | 37 | 0 | 0.0 | 0.0 | 0.00 | 0.04 | 0.00 | 81 | 1008.0 |
| 20260504024048 | 37 | 0 | 0.0 | 0.0 | 0.00 | 0.04 | 0.00 | 81 | 1007.9 |
| 20260504023551 | 37 | 0 | 0.0 | 0.0 | 0.00 | 0.04 | 0.00 | 79 | 1007.9 |
| 20260504023052 | 37 | 0 | 0.0 | 0.0 | 0.00 | 0.04 | 0.00 | 78 | 1008.0 |
| 20260504022547 | 38 | 0 | 0.0 | 0.0 | 0.00 | 0.04 | 0.00 | 78 | 1008.0 |
| 20260504022047 | 37 | 0 | 0.0 | 0.0 | 0.00 | 0.04 | 0.00 | 79 | 1008.1 |
| 20260504021554 | 38 | 0 | 0.0 | 0.0 | 0.00 | 0.04 | 0.00 | 78 | 1007.9 |
| 20260504021047 | 38 | 0 | 0.0 | 0.0 | 0.00 | 0.04 | 0.00 | 77 | 1007.9 |
| 20260504020547 | 38 | 0 | 0.0 | 0.0 | 0.00 | 0.04 | 0.00 | 76 | 1007.9 |
| 20260504020054 | 39 | 0 | 0.0 | 0.0 | 0.00 | 0.04 | 0.00 | 75 | 1007.9 |
| 20260504015547 | 39 | 0 | 0.0 | 0.0 | 0.00 | 0.04 | 0.00 | 74 | 1007.9 |
| 20260504015047 | 39 | 0 | 0.0 | 0.0 | 0.00 | 0.04 | 0.00 | 74 | 1008.0 |